| time (UTC) | temp F | wind direction | speed MPH | gust MPH | rain 1hr in | rain 24hr in | rain mn in | humidity % | barometer mb |
| 20260905043732 | 57 | 287 | 2.0 | 5.0 | 0.00 | 0.11 | 0.00 | 92 | 1019.7 |
| 20260905042732 | 57 | 284 | 2.0 | 5.0 | 0.00 | 0.11 | 0.00 | 93 | 1019.5 |
| 20260905042231 | 57 | 284 | 2.0 | 5.0 | 0.00 | 0.11 | 0.00 | 93 | 1019.4 |
| 20260905041730 | 57 | 284 | 2.0 | 5.0 | 0.00 | 0.11 | 0.00 | 93 | 1019.4 |
| 20260905041223 | 58 | 284 | 2.0 | 7.0 | 0.00 | 0.11 | 0.00 | 93 | 1019.3 |
| 20260905040221 | 58 | 280 | 2.0 | 9.0 | 0.00 | 0.11 | 0.00 | 93 | 1019.2 |
| 20260905035722 | 58 | 266 | 2.0 | 5.0 | 0.00 | 0.11 | 0.00 | 93 | 1019.1 |
| 20260905035218 | 58 | 256 | 2.0 | 5.0 | 0.00 | 0.11 | 0.00 | 93 | 1019.0 |
| 20260905034722 | 58 | 253 | 2.0 | 5.0 | 0.00 | 0.11 | 0.00 | 93 | 1019.1 |
| 20260905034219 | 58 | 241 | 2.0 | 7.0 | 0.00 | 0.11 | 0.00 | 93 | 1019.1 |
| 20260905033713 | 58 | 237 | 2.0 | 7.0 | 0.00 | 0.11 | 0.00 | 94 | 1019.1 |
| 20260905033213 | 58 | 287 | 2.0 | 9.0 | 0.00 | 0.11 | 0.00 | 94 | 1019.1 |
| 20260905032707 | 58 | 285 | 2.0 | 9.0 | 0.00 | 0.11 | 0.00 | 94 | 1019.0 |
| 20260905030705 | 59 | 283 | 2.0 | 11.0 | 0.00 | 0.11 | 0.00 | 94 | 1018.8 |
| 20260905030205 | 59 | 301 | 2.0 | 11.0 | 0.00 | 0.11 | 0.00 | 94 | 1018.7 |
| 20260905025706 | 59 | 264 | 2.0 | 7.0 | 0.00 | 0.11 | 0.00 | 94 | 1018.6 |
| 20260905025203 | 59 | 260 | 2.0 | 7.0 | 0.00 | 0.11 | 0.00 | 94 | 1018.7 |
| 20260905024703 | 59 | 256 | 0.0 | 4.0 | 0.00 | 0.11 | 0.00 | 94 | 1018.8 |
| 20260905024204 | 59 | 266 | 0.0 | 4.0 | 0.00 | 0.11 | 0.00 | 94 | 1018.7 |
| 20260905023204 | 59 | 261 | 0.0 | 5.0 | 0.00 | 0.11 | 0.00 | 94 | 1018.7 |
| 20260905022652 | 59 | 259 | 0.0 | 5.0 | 0.00 | 0.11 | 0.00 | 94 | 1018.6 |
| 20260905022153 | 60 | 259 | 0.0 | 5.0 | 0.00 | 0.11 | 0.00 | 94 | 1018.7 |
| 20260905021657 | 60 | 260 | 0.0 | 4.0 | 0.00 | 0.11 | 0.00 | 94 | 1018.6 |
| 20260905021154 | 60 | 259 | 0.0 | 4.0 | 0.00 | 0.11 | 0.00 | 94 | 1018.6 |
| 20260905020647 | 60 | 258 | 0.0 | 5.0 | 0.00 | 0.11 | 0.00 | 94 | 1018.5 |
| 20260905015647 | 59 | 256 | 0.0 | 5.0 | 0.00 | 0.11 | 0.00 | 93 | 1018.6 |
| 20260905015146 | 59 | 249 | 0.0 | 0.0 | 0.00 | 0.11 | 0.00 | 93 | 1018.5 |
| 20260905014132 | 59 | 249 | 0.0 | 0.0 | 0.00 | 0.11 | 0.00 | 93 | 1018.5 |
| 20260905013131 | 59 | 248 | 0.0 | 0.0 | 0.00 | 0.11 | 0.00 | 92 | 1018.3 |
| 20260905012632 | 59 | 248 | 0.0 | 0.0 | 0.00 | 0.11 | 0.00 | 92 | 1018.4 |
| 20260905012126 | 60 | 248 | 0.0 | 0.0 | 0.00 | 0.11 | 0.00 | 92 | 1018.3 |
| 20260905011616 | 60 | 248 | 0.0 | 0.0 | 0.00 | 0.11 | 0.00 | 91 | 1018.3 |
| 20260905011111 | 60 | 248 | 0.0 | 0.0 | 0.00 | 0.11 | 0.00 | 91 | 1018.3 |
| 20260905010605 | 60 | 248 | 0.0 | 0.0 | 0.00 | 0.11 | 0.00 | 91 | 1018.3 |
| 20260905010104 | 60 | 248 | 0.0 | 0.0 | 0.00 | 0.11 | 0.00 | 91 | 1018.3 |
| 20260905005606 | 60 | 248 | 0.0 | 4.0 | 0.00 | 0.11 | 0.00 | 91 | 1018.2 |
| 20260905004604 | 60 | 248 | 0.0 | 0.0 | 0.00 | 0.11 | 0.00 | 91 | 1018.2 |
| 20260905004104 | 60 | 248 | 0.0 | 0.0 | 0.00 | 0.11 | 0.00 | 91 | 1018.2 |
| 20260905003605 | 60 | 248 | 0.0 | 0.0 | 0.00 | 0.11 | 0.00 | 91 | 1018.2 |
| 20260905003103 | 60 | 248 | 0.0 | 0.0 | 0.00 | 0.11 | 0.00 | 91 | 1018.1 |
| 20260905002604 | 60 | 248 | 0.0 | 2.0 | 0.00 | 0.11 | 0.00 | 91 | 1018.1 |
| 20260905002103 | 60 | 247 | 0.0 | 2.0 | 0.00 | 0.11 | 0.00 | 91 | 1018.1 |
| 20260905001103 | 60 | 246 | 0.0 | 0.0 | 0.00 | 0.11 | 0.00 | 91 | 1018.1 |
| 20260905000604 | 60 | 246 | 0.0 | 0.0 | 0.00 | 0.11 | 0.00 | 91 | 1018.0 |
| 20260904235052 | 61 | 246 | 0.0 | 0.0 | 0.00 | 0.11 | 0.00 | 91 | 1018.0 |
| 20260904234044 | 61 | 246 | 0.0 | 0.0 | 0.00 | 0.11 | 0.00 | 91 | 1018.0 |
| 20260904233542 | 61 | 245 | 0.0 | 0.0 | 0.00 | 0.11 | 0.00 | 91 | 1017.8 |
| 20260904233047 | 61 | 245 | 0.0 | 2.0 | 0.00 | 0.11 | 0.00 | 91 | 1017.9 |
| 20260904232032 | 61 | 245 | 0.0 | 4.0 | 0.00 | 0.11 | 0.00 | 91 | 1017.9 |
| 20260904231532 | 61 | 245 | 0.0 | 0.0 | 0.00 | 0.11 | 0.00 | 91 | 1017.9 |
| 20260904231031 | 61 | 245 | 0.0 | 0.0 | 0.00 | 0.11 | 0.00 | 90 | 1017.8 |
| 20260904230533 | 62 | 245 | 0.0 | 2.0 | 0.00 | 0.11 | 0.00 | 90 | 1017.8 |
| 20260904230022 | 62 | 245 | 0.0 | 4.0 | 0.00 | 0.11 | 0.00 | 90 | 1017.8 |
| 20260904225522 | 62 | 245 | 0.0 | 4.0 | 0.00 | 0.11 | 0.00 | 90 | 1017.7 |
| 20260904224523 | 62 | 245 | 0.0 | 2.0 | 0.00 | 0.11 | 0.00 | 89 | 1017.7 |
| 20260904224008 | 62 | 245 | 0.0 | 0.0 | 0.00 | 0.11 | 0.00 | 89 | 1017.7 |
| 20260904223007 | 63 | 245 | 0.0 | 2.0 | 0.00 | 0.11 | 0.00 | 89 | 1017.6 |
| 20260904222505 | 63 | 245 | 0.0 | 2.0 | 0.00 | 0.11 | 0.00 | 89 | 1017.6 |
| 20260904221505 | 63 | 245 | 0.0 | 4.0 | 0.00 | 0.11 | 0.00 | 89 | 1017.5 |
| 20260904220005 | 64 | 245 | 0.0 | 5.0 | 0.00 | 0.11 | 0.00 | 89 | 1017.3 |
| 20260904215506 | 64 | 245 | 2.0 | 5.0 | 0.00 | 0.11 | 0.11 | 90 | 1017.4 |
| 20260904214505 | 64 | 243 | 2.0 | 5.0 | 0.00 | 0.11 | 0.11 | 90 | 1017.2 |
| 20260904213959 | 64 | 241 | 0.0 | 5.0 | 0.00 | 0.11 | 0.11 | 91 | 1017.1 |
| 20260904213500 | 64 | 281 | 0.0 | 4.0 | 0.00 | 0.11 | 0.11 | 91 | 1017.1 |
| 20260904212954 | 64 | 281 | 2.0 | 7.0 | 0.00 | 0.11 | 0.11 | 92 | 1017.0 |
| 20260904211948 | 64 | 250 | 2.0 | 5.0 | 0.00 | 0.11 | 0.11 | 93 | 1017.1 |
| 20260904210945 | 64 | 291 | 0.0 | 5.0 | 0.00 | 0.11 | 0.11 | 94 | 1017.1 |
| 20260904204935 | 65 | 285 | 0.0 | 2.0 | 0.00 | 0.11 | 0.11 | 94 | 1017.0 |
| 20260904204433 | 65 | 285 | 0.0 | 5.0 | 0.00 | 0.11 | 0.11 | 94 | 1017.0 |
| 20260904203933 | 65 | 278 | 0.0 | 5.0 | 0.00 | 0.11 | 0.11 | 94 | 1017.0 |
| 20260904203434 | 65 | 278 | 0.0 | 5.0 | 0.00 | 0.11 | 0.11 | 94 | 1017.0 |
| 20260904201934 | 65 | 277 | 2.0 | 7.0 | 0.00 | 0.11 | 0.11 | 94 | 1016.7 |
| 20260904201433 | 65 | 278 | 2.0 | 7.0 | 0.00 | 0.11 | 0.11 | 94 | 1016.7 |
| 20260904200932 | 65 | 285 | 0.0 | 4.0 | 0.00 | 0.11 | 0.11 | 94 | 1016.5 |
| 20260904200433 | 65 | 285 | 0.0 | 7.0 | 0.00 | 0.11 | 0.11 | 94 | 1016.5 |
| 20260904195930 | 65 | 285 | 0.0 | 7.0 | 0.00 | 0.11 | 0.11 | 94 | 1016.5 |
| 20260904195432 | 65 | 276 | 0.0 | 5.0 | 0.00 | 0.11 | 0.11 | 94 | 1016.3 |
| 20260904194931 | 65 | 275 | 0.0 | 5.0 | 0.00 | 0.11 | 0.11 | 94 | 1016.3 |
| 20260904193933 | 65 | 276 | 0.0 | 4.0 | 0.00 | 0.11 | 0.11 | 94 | 1016.0 |
| 20260904193434 | 65 | 276 | 0.0 | 4.0 | 0.00 | 0.11 | 0.11 | 94 | 1016.0 |
| 20260904192422 | 66 | 276 | 2.0 | 7.0 | 0.00 | 0.11 | 0.11 | 94 | 1016.1 |
| 20260904191923 | 66 | 294 | 0.0 | 4.0 | 0.00 | 0.11 | 0.11 | 94 | 1016.1 |
| 20260904191424 | 66 | 294 | 2.0 | 11.0 | 0.00 | 0.11 | 0.11 | 94 | 1016.1 |
| 20260904190925 | 66 | 294 | 2.0 | 11.0 | 0.00 | 0.11 | 0.11 | 94 | 1015.9 |
| 20260904190417 | 66 | 273 | 2.0 | 7.0 | 0.00 | 0.11 | 0.11 | 94 | 1015.9 |
| 20260904185916 | 65 | 268 | 4.0 | 9.0 | 0.00 | 0.11 | 0.11 | 94 | 1015.5 |
| 20260904185410 | 65 | 291 | 4.0 | 11.0 | 0.00 | 0.11 | 0.11 | 95 | 1015.6 |
| 20260904184406 | 65 | 281 | 2.0 | 7.0 | 0.00 | 0.11 | 0.11 | 95 | 1015.3 |
| 20260904183906 | 65 | 282 | 2.0 | 7.0 | 0.00 | 0.11 | 0.11 | 95 | 1015.4 |
| 20260904183408 | 65 | 297 | 4.0 | 11.0 | 0.00 | 0.11 | 0.11 | 95 | 1015.3 |
| 20260904182904 | 65 | 265 | 5.0 | 12.0 | 0.00 | 0.11 | 0.11 | 95 | 1015.3 |
| 20260904182404 | 65 | 277 | 2.0 | 12.0 | 0.00 | 0.11 | 0.11 | 95 | 1015.2 |
| 20260904180904 | 65 | 270 | 2.0 | 7.0 | 0.00 | 0.11 | 0.11 | 96 | 1015.2 |
| 20260904180405 | 66 | 270 | 2.0 | 7.0 | 0.00 | 0.11 | 0.11 | 96 | 1015.1 |
| 20260904175902 | 66 | 284 | 2.0 | 7.0 | 0.00 | 0.11 | 0.11 | 95 | 1014.9 |
| 20260904175406 | 66 | 266 | 0.0 | 5.0 | 0.00 | 0.11 | 0.11 | 96 | 1014.8 |
| 20260904174905 | 66 | 262 | 0.0 | 0.0 | 0.00 | 0.11 | 0.11 | 96 | 1014.8 |
| 20260904174407 | 66 | 262 | 0.0 | 2.0 | 0.00 | 0.11 | 0.11 | 96 | 1014.9 |
| 20260904173903 | 66 | 262 | 0.0 | 5.0 | 0.00 | 0.11 | 0.11 | 96 | 1014.9 |
| 20260904173404 | 66 | 262 | 0.0 | 5.0 | 0.00 | 0.11 | 0.11 | 96 | 1014.9 |
| 20260904172903 | 66 | 262 | 0.0 | 5.0 | 0.00 | 0.11 | 0.11 | 96 | 1014.8 |
| 20260904172405 | 66 | 270 | 0.0 | 0.0 | 0.00 | 0.11 | 0.11 | 96 | 1014.7 |
| 20260904171904 | 66 | 270 | 0.0 | 0.0 | 0.00 | 0.11 | 0.11 | 96 | 1014.5 |
| 20260904171404 | 66 | 270 | 0.0 | 4.0 | 0.00 | 0.11 | 0.11 | 96 | 1014.4 |
| 20260904170902 | 66 | 270 | 0.0 | 4.0 | 0.00 | 0.11 | 0.11 | 96 | 1014.6 |
| 20260904170404 | 66 | 270 | 0.0 | 4.0 | 0.00 | 0.11 | 0.11 | 96 | 1014.5 |
| 20260904165903 | 66 | 270 | 0.0 | 4.0 | 0.00 | 0.11 | 0.11 | 96 | 1014.6 |
| 20260904165404 | 66 | 269 | 0.0 | 2.0 | 0.00 | 0.11 | 0.11 | 96 | 1014.5 |
| 20260904164903 | 66 | 269 | 0.0 | 7.0 | 0.00 | 0.11 | 0.11 | 96 | 1014.6 |
| 20260904164404 | 66 | 269 | 2.0 | 7.0 | 0.00 | 0.11 | 0.11 | 96 | 1014.5 |
| 20260904163902 | 66 | 268 | 2.0 | 7.0 | 0.00 | 0.11 | 0.11 | 96 | 1014.3 |
| 20260904163406 | 66 | 269 | 2.0 | 7.0 | 0.00 | 0.11 | 0.11 | 96 | 1014.3 |
| 20260904162904 | 66 | 272 | 4.0 | 7.0 | 0.00 | 0.11 | 0.11 | 95 | 1014.2 |
| 20260904162406 | 66 | 268 | 4.0 | 9.0 | 0.00 | 0.11 | 0.11 | 95 | 1014.4 |
| 20260904161903 | 66 | 264 | 2.0 | 9.0 | 0.00 | 0.11 | 0.11 | 95 | 1014.5 |
| 20260904161405 | 66 | 312 | 2.0 | 5.0 | 0.00 | 0.11 | 0.11 | 95 | 1014.5 |
| 20260904160904 | 66 | 273 | 2.0 | 7.0 | 0.00 | 0.11 | 0.11 | 95 | 1014.5 |
| 20260904160404 | 66 | 268 | 2.0 | 7.0 | 0.00 | 0.11 | 0.11 | 95 | 1014.4 |
| 20260904155902 | 66 | 259 | 2.0 | 7.0 | 0.00 | 0.11 | 0.11 | 95 | 1014.5 |
| 20260904154901 | 66 | 255 | 0.0 | 5.0 | 0.00 | 0.11 | 0.11 | 95 | 1014.3 |
| 20260904154357 | 66 | 266 | 2.0 | 14.0 | 0.00 | 0.11 | 0.11 | 95 | 1014.2 |
| 20260904153850 | 66 | 290 | 4.0 | 14.0 | 0.00 | 0.11 | 0.11 | 95 | 1014.3 |
| 20260904153350 | 66 | 303 | 2.0 | 14.0 | 0.00 | 0.11 | 0.11 | 95 | 1014.2 |
| 20260904152851 | 66 | 255 | 2.0 | 11.0 | 0.00 | 0.11 | 0.11 | 94 | 1014.3 |
| 20260904152345 | 66 | 306 | 2.0 | 9.0 | 0.01 | 0.11 | 0.11 | 94 | 1014.4 |
| 20260904151846 | 66 | 298 | 2.0 | 9.0 | 0.05 | 0.11 | 0.11 | 94 | 1014.4 |
| 20260904151339 | 66 | 251 | 0.0 | 4.0 | 0.09 | 0.11 | 0.11 | 94 | 1014.3 |
| 20260904150834 | 66 | 251 | 2.0 | 4.0 | 0.09 | 0.11 | 0.11 | 94 | 1014.5 |
| 20260904150335 | 66 | 251 | 2.0 | 4.0 | 0.09 | 0.11 | 0.11 | 93 | 1014.5 |
| 20260904145835 | 66 | 259 | 2.0 | 5.0 | 0.09 | 0.11 | 0.11 | 93 | 1014.4 |
| 20260904145331 | 66 | 268 | 2.0 | 5.0 | 0.09 | 0.11 | 0.11 | 93 | 1014.2 |
| 20260904144831 | 67 | 288 | 2.0 | 7.0 | 0.09 | 0.11 | 0.11 | 93 | 1014.2 |
| 20260904144333 | 67 | 285 | 2.0 | 12.0 | 0.09 | 0.11 | 0.11 | 93 | 1014.2 |
| 20260904143831 | 67 | 305 | 2.0 | 12.0 | 0.09 | 0.11 | 0.11 | 92 | 1014.0 |
| 20260904143332 | 67 | 336 | 2.0 | 14.0 | 0.10 | 0.11 | 0.11 | 92 | 1014.0 |
| 20260904142833 | 68 | 74 | 2.0 | 14.0 | 0.11 | 0.11 | 0.11 | 91 | 1013.9 |
| 20260904142334 | 68 | 317 | 4.0 | 20.0 | 0.10 | 0.10 | 0.09 | 90 | 1014.0 |
| 20260904141834 | 69 | 226 | 7.0 | 27.0 | 0.06 | 0.06 | 0.05 | 89 | 1013.7 |
| 20260904141333 | 71 | 309 | 7.0 | 27.0 | 0.02 | 0.02 | 0.02 | 90 | 1013.5 |
| 20260904140831 | 71 | 295 | 7.0 | 20.0 | 0.02 | 0.02 | 0.02 | 91 | 1013.2 |
| 20260904140334 | 71 | 272 | 9.0 | 20.0 | 0.02 | 0.02 | 0.02 | 91 | 1013.1 |
| 20260904135831 | 71 | 285 | 7.0 | 20.0 | 0.02 | 0.02 | 0.02 | 91 | 1013.1 |
| 20260904135332 | 71 | 280 | 7.0 | 14.0 | 0.02 | 0.02 | 0.02 | 92 | 1013.1 |
| 20260904134832 | 71 | 342 | 7.0 | 14.0 | 0.02 | 0.02 | 0.02 | 91 | 1013.2 |
| 20260904134331 | 71 | 275 | 7.0 | 16.0 | 0.02 | 0.02 | 0.02 | 90 | 1013.2 |
| 20260904133831 | 71 | 307 | 7.0 | 20.0 | 0.02 | 0.02 | 0.02 | 90 | 1013.2 |
| 20260904132329 | 72 | 312 | 11.0 | 31.0 | 0.00 | 0.00 | 0.00 | 86 | 1013.2 |
| 20260904131827 | 73 | 330 | 11.0 | 25.0 | 0.00 | 0.00 | 0.00 | 84 | 1013.2 |
| 20260904131329 | 73 | 337 | 9.0 | 25.0 | 0.00 | 0.00 | 0.00 | 83 | 1013.2 |
| 20260904130828 | 73 | 345 | 9.0 | 23.0 | 0.00 | 0.00 | 0.00 | 82 | 1013.1 |
| 20260904130324 | 73 | 301 | 12.0 | 34.0 | 0.00 | 0.00 | 0.00 | 81 | 1013.1 |
| 20260904125824 | 74 | 276 | 14.0 | 34.0 | 0.00 | 0.00 | 0.00 | 80 | 1013.0 |
| 20260904125325 | 74 | 292 | 11.0 | 27.0 | 0.00 | 0.00 | 0.00 | 79 | 1013.0 |
| 20260904124323 | 75 | 285 | 14.0 | 32.0 | 0.00 | 0.00 | 0.00 | 78 | 1012.9 |
| 20260904123823 | 74 | 328 | 14.0 | 32.0 | 0.00 | 0.00 | 0.00 | 79 | 1012.9 |
| 20260904123322 | 74 | 255 | 12.0 | 29.0 | 0.00 | 0.00 | 0.00 | 78 | 1012.9 |
| 20260904122821 | 74 | 180 | 12.0 | 27.0 | 0.00 | 0.00 | 0.00 | 79 | 1012.8 |
| 20260904122319 | 74 | 141 | 12.0 | 25.0 | 0.00 | 0.00 | 0.00 | 79 | 1012.8 |
| 20260904121315 | 74 | 30 | 12.0 | 36.0 | 0.00 | 0.00 | 0.00 | 79 | 1012.9 |
| 20260904120317 | 74 | 282 | 12.0 | 23.0 | 0.00 | 0.00 | 0.00 | 80 | 1012.8 |
| 20260904115816 | 74 | 272 | 11.0 | 32.0 | 0.00 | 0.00 | 0.00 | 81 | 1012.9 |
| 20260904115314 | 74 | 132 | 11.0 | 32.0 | 0.00 | 0.00 | 0.00 | 82 | 1012.9 |
| 20260904114813 | 73 | 259 | 11.0 | 34.0 | 0.00 | 0.00 | 0.00 | 83 | 1013.0 |
| 20260904114314 | 73 | 316 | 12.0 | 34.0 | 0.00 | 0.00 | 0.00 | 83 | 1012.9 |
| 20260904113811 | 73 | 330 | 12.0 | 32.0 | 0.00 | 0.00 | 0.00 | 83 | 1012.9 |
| 20260904112309 | 74 | 307 | 9.0 | 22.0 | 0.00 | 0.00 | 0.00 | 80 | 1012.9 |
| 20260904111811 | 74 | 289 | 9.0 | 27.0 | 0.00 | 0.00 | 0.00 | 81 | 1012.8 |
| 20260904111308 | 74 | 324 | 9.0 | 27.0 | 0.00 | 0.00 | 0.00 | 80 | 1012.9 |
| 20260904110309 | 74 | 330 | 11.0 | 31.0 | 0.00 | 0.00 | 0.00 | 79 | 1013.0 |
| 20260904105306 | 75 | 287 | 7.0 | 23.0 | 0.00 | 0.00 | 0.00 | 78 | 1012.8 |
| 20260904104809 | 75 | 283 | 9.0 | 23.0 | 0.00 | 0.00 | 0.00 | 78 | 1012.9 |
| 20260904103803 | 76 | 336 | 11.0 | 27.0 | 0.00 | 0.00 | 0.00 | 77 | 1012.8 |
| 20260904102802 | 76 | 324 | 12.0 | 36.0 | 0.00 | 0.00 | 0.00 | 78 | 1012.9 |
| 20260904101802 | 75 | 304 | 12.0 | 29.0 | 0.00 | 0.00 | 0.00 | 77 | 1012.8 |
| 20260904101303 | 75 | 267 | 12.0 | 29.0 | 0.00 | 0.00 | 0.00 | 78 | 1012.8 |
| 20260904100804 | 75 | 295 | 12.0 | 27.0 | 0.00 | 0.00 | 0.00 | 79 | 1012.7 |
| 20260904100302 | 75 | 298 | 12.0 | 34.0 | 0.00 | 0.00 | 0.00 | 78 | 1012.9 |
| 20260904095803 | 75 | 279 | 11.0 | 34.0 | 0.00 | 0.00 | 0.00 | 78 | 1013.1 |
| 20260904094803 | 75 | 331 | 9.0 | 29.0 | 0.00 | 0.00 | 0.00 | 79 | 1012.9 |
| 20260904094302 | 75 | 291 | 11.0 | 31.0 | 0.00 | 0.00 | 0.00 | 79 | 1012.9 |
| 20260904093806 | 75 | 298 | 11.0 | 31.0 | 0.00 | 0.00 | 0.00 | 79 | 1012.9 |
| 20260904093305 | 75 | 260 | 9.0 | 31.0 | 0.00 | 0.00 | 0.00 | 79 | 1012.8 |
| 20260904091302 | 75 | 350 | 12.0 | 39.0 | 0.00 | 0.00 | 0.00 | 78 | 1012.8 |
| 20260904090800 | 75 | 118 | 11.0 | 39.0 | 0.00 | 0.00 | 0.00 | 78 | 1012.8 |
| 20260904090258 | 75 | 303 | 9.0 | 23.0 | 0.00 | 0.00 | 0.00 | 79 | 1012.9 |
| 20260904085800 | 74 | 309 | 9.0 | 23.0 | 0.00 | 0.00 | 0.00 | 80 | 1012.8 |
| 20260904085257 | 73 | 285 | 7.0 | 22.0 | 0.00 | 0.00 | 0.00 | 81 | 1013.1 |
| 20260904084757 | 73 | 265 | 11.0 | 25.0 | 0.00 | 0.00 | 0.00 | 82 | 1013.2 |
| 20260904084256 | 72 | 322 | 9.0 | 25.0 | 0.00 | 0.00 | 0.00 | 83 | 1013.3 |
| 20260904083755 | 72 | 327 | 9.0 | 25.0 | 0.00 | 0.00 | 0.00 | 83 | 1013.3 |
| 20260904083254 | 72 | 303 | 11.0 | 34.0 | 0.00 | 0.00 | 0.00 | 83 | 1013.5 |
| 20260904082755 | 72 | 308 | 12.0 | 34.0 | 0.00 | 0.00 | 0.00 | 83 | 1013.5 |
| 20260904081752 | 72 | 298 | 9.0 | 23.0 | 0.00 | 0.00 | 0.00 | 82 | 1013.5 |
| 20260904081252 | 72 | 289 | 7.0 | 22.0 | 0.00 | 0.00 | 0.00 | 82 | 1013.3 |
| 20260904080751 | 72 | 239 | 9.0 | 25.0 | 0.00 | 0.00 | 0.00 | 82 | 1013.4 |
| 20260904080253 | 72 | 322 | 9.0 | 25.0 | 0.00 | 0.00 | 0.00 | 83 | 1013.3 |
| 20260904075751 | 72 | 281 | 5.0 | 23.0 | 0.00 | 0.00 | 0.00 | 83 | 1013.4 |
| 20260904075251 | 72 | 322 | 5.0 | 14.0 | 0.00 | 0.00 | 0.00 | 84 | 1013.5 |
| 20260904074750 | 72 | 107 | 7.0 | 18.0 | 0.00 | 0.00 | 0.00 | 84 | 1013.5 |
| 20260904074249 | 72 | 323 | 9.0 | 34.0 | 0.00 | 0.00 | 0.00 | 85 | 1013.5 |
| 20260904073750 | 71 | 169 | 11.0 | 34.0 | 0.00 | 0.00 | 0.00 | 85 | 1013.5 |
| 20260904073246 | 71 | 290 | 11.0 | 29.0 | 0.00 | 0.00 | 0.00 | 85 | 1013.6 |
| 20260904072747 | 71 | 302 | 11.0 | 29.0 | 0.00 | 0.00 | 0.00 | 86 | 1013.5 |
| 20260904072246 | 71 | 275 | 9.0 | 27.0 | 0.00 | 0.00 | 0.00 | 86 | 1013.6 |
| 20260904071744 | 71 | 315 | 9.0 | 25.0 | 0.00 | 0.00 | 0.00 | 86 | 1013.6 |
| 20260904071244 | 71 | 285 | 9.0 | 27.0 | 0.00 | 0.00 | 0.00 | 86 | 1013.5 |
| 20260904070744 | 71 | 184 | 9.0 | 27.0 | 0.00 | 0.00 | 0.00 | 87 | 1013.5 |
| 20260904070244 | 71 | 296 | 7.0 | 22.0 | 0.00 | 0.00 | 0.00 | 87 | 1013.6 |
| 20260904065743 | 71 | 303 | 9.0 | 29.0 | 0.00 | 0.00 | 0.00 | 87 | 1013.7 |
| 20260904065242 | 71 | 315 | 7.0 | 29.0 | 0.00 | 0.00 | 0.00 | 88 | 1013.7 |
| 20260904063238 | 70 | 215 | 7.0 | 22.0 | 0.00 | 0.00 | 0.00 | 89 | 1013.8 |
| 20260904061736 | 70 | 321 | 5.0 | 14.0 | 0.00 | 0.00 | 0.00 | 89 | 1013.8 |
| 20260904061235 | 70 | 309 | 5.0 | 14.0 | 0.00 | 0.00 | 0.00 | 89 | 1013.9 |
| 20260904060732 | 70 | 307 | 5.0 | 20.0 | 0.00 | 0.00 | 0.00 | 90 | 1014.0 |
| 20260904060231 | 69 | 262 | 4.0 | 20.0 | 0.00 | 0.00 | 0.00 | 90 | 1014.0 |
| 20260904055733 | 69 | 297 | 4.0 | 14.0 | 0.00 | 0.00 | 0.00 | 90 | 1014.0 |
| 20260904054732 | 69 | 269 | 5.0 | 14.0 | 0.00 | 0.00 | 0.00 | 90 | 1014.1 |
| 20260904053731 | 69 | 228 | 5.0 | 12.0 | 0.00 | 0.00 | 0.00 | 89 | 1014.3 |
| 20260904053231 | 69 | 325 | 5.0 | 16.0 | 0.00 | 0.00 | 0.00 | 89 | 1014.3 |
| 20260904052730 | 69 | 201 | 5.0 | 16.0 | 0.00 | 0.00 | 0.00 | 89 | 1014.2 |
| 20260904052230 | 69 | 311 | 5.0 | 16.0 | 0.00 | 0.00 | 0.00 | 90 | 1014.3 |
| 20260904051732 | 69 | 305 | 5.0 | 16.0 | 0.00 | 0.00 | 0.00 | 90 | 1014.3 |
| 20260904051232 | 69 | 341 | 4.0 | 14.0 | 0.00 | 0.00 | 0.00 | 90 | 1014.4 |
| 20260904050732 | 69 | 318 | 4.0 | 12.0 | 0.00 | 0.00 | 0.00 | 90 | 1014.3 |
| 20260904045730 | 69 | 285 | 5.0 | 20.0 | 0.00 | 0.00 | 0.00 | 90 | 1014.4 |
| 20260904045231 | 69 | 295 | 5.0 | 20.0 | 0.00 | 0.00 | 0.00 | 90 | 1014.6 |
| 20260904044733 | 69 | 298 | 5.0 | 16.0 | 0.00 | 0.00 | 0.00 | 90 | 1014.6 |
| 20260904044230 | 69 | 310 | 5.0 | 12.0 | 0.00 | 0.00 | 0.00 | 90 | 1014.7 |